Miscellaneous Local Product
Issued by NWS Hastings, NE

Home | Current Version | Previous Version | Graphics & Text | Print | Product List | Glossary On
Versions: 1 2 3 4 5 6 7 8 9 10 11 12 13 14 15 16 17 18 19 20 21 22 23 24 25 26 27 28 29 30 31 32 33 34 35 36 37 38 39 40 41 42 43 44 45 46 47 48 49 50
000
AXUS43 KGID 270602
MISGRI

GID CWA HOURLY WEATHER ROUNDUP
NATIONAL WEATHER SERVICE HASTINGS NE
100 AM CDT SUN JUL 27 2014

NOTE: "FAIR" INDICATES FEW OR NO CLOUDS BELOW 12,000 FEET WITH NO
SIGNIFICANT WEATHER AND/OR OBSTRUCTIONS TO VISIBILITY.

...SOUTH CENTRAL NEBRASKA...

CITY           SKY/WX    TMP DP  RH WIND       PRES   REMARKS
GRAND ISLAND   CLEAR     69  65  86 W5        30.04R
HASTINGS       CLEAR     71  65  81 NW5       30.05R
KEARNEY        CLEAR     70  63  78 NW6       30.06F
ORD            CLEAR     64  61  90 NW6       30.05R
YORK           CLEAR     72  72 100 N3        30.01S
AURORA         CLEAR     71  71  98 N6        30.03R
LEXINGTON      CLEAR     65  62  90 N6        30.08S
HOLDREGE       CLEAR     68  64  86 N5        30.07S
HEBRON         CLEAR     76  71  83 N6        29.99R

...NEBRASKA PANHANDLE...

CITY           SKY/WX    TMP DP  RH WIND       PRES   REMARKS
CHADRON        CLEAR     62  48  60 S3        30.19R
ALLIANCE       PTCLDY    62  48  60 NE10      30.20S
SCOTTSBLUFF    MOCLDY    69  50  50 E5        30.19R
SIDNEY         CLOUDY    69  59  70 SE3       30.22R

...WESTERN AND NORTH CENTRAL NEBRASKA...

CITY           SKY/WX    TMP DP  RH WIND       PRES   REMARKS
VALENTINE      CLEAR     60  50  69 W7        30.14R
AINSWORTH      PTCLDY    65  51  61 NW7       30.12R
ONEILL         CLEAR     64  56  74 NW7       30.06S
BROKEN BOW     PTCLDY    67  61  81 N8        30.08F
IMPERIAL       PTCLDY    68  61  78 NE6       30.14R
NORTH PLATTE   PTCLDY    65  59  81 CALM      30.12S
MCCOOK         CLEAR     70  61  73 N9        30.09S

...EASTERN NEBRASKA...

CITY           SKY/WX    TMP DP  RH WIND       PRES   REMARKS
NORFOLK        CLEAR     69  67  93 W7        30.00S
SO SIOUX CITY  CLEAR     70  67  90 NW5       29.95S
COLUMBUS       CLEAR     66  66 100 CALM      30.00R
ALBION         CLEAR     66  64  93 NW3       30.03R
OMAHA EPPLEY   PTCLDY    73  70  90 N6        29.94R
OFFUTT AFB     CLEAR     74  74 100 W3        29.93R
MILLARD        CLEAR     76  73  90 NW7       29.94R
LINCOLN        CLEAR     78  72  81 NW8       29.98R
NEBRASKA CITY  CLEAR     74  74 100 N5        29.94R
BEATRICE       CLEAR     74  73  96 NW7       29.96R FOG
FALLS CITY     NOT AVBL

...NORTHERN KANSAS...

CITY           SKY/WX    TMP DP  RH WIND       PRES   REMARKS
GOODLAND       MOCLDY    69  64  84 NE6       30.15R
HILL CITY      PTCLDY    78  69  73 N16       30.05R
NORTON         CLEAR     73  61  64 N7        30.06R
PHILLIPSBURG   CLEAR     79  66  65 N13       30.02R
SMITH CENTER   CLEAR     79  68  69 N14G20    30.01S
HAYS           CLEAR     79  70  73 N16G23    30.01R
RUSSELL        PTCLDY    80  74  81 N12       29.98R
CONCORDIA      PTCLDY    78  75  90 N8        29.97R
SALINA         PTCLDY    88  75  65 N13       29.93R HX  97
TOPEKA         PTCLDY    82  76  81 N7        29.88R



USA.gov is the U.S. government's official web portal to all federal, state and local government web resources and services.